Regional Weather Roundup
Issued by NWS Jackson, KY

Home | Current Version | Previous Version | Graphics & Text | Print | Product List | Glossary On
Versions: 1 2 3 4 5 6 7 8 9 10 11 12 13 14 15 16 17 18 19 20 21 22 23 24 25 26 27 28 29 30 31 32 33 34 35 36 37 38 39 40 41 42 43 44 45 46 47 48 49 50
000
ASUS43 KJKL 250511
RWRJKL

EAST KENTUCKY HOURLY WEATHER ROUNDUP
NATIONAL WEATHER SERVICE JACKSON KY
100 AM EDT SAT OCT 25 2014

NOTE: "FAIR" INDICATES FEW OR NO CLOUDS BELOW 12,000 FEET WITH
NO SIGNIFICANT WEATHER AND/OR OBSTRUCTIONS TO VISIBILITY.

* THESE REPORTS ARE NOT UNDER NWS QUALITY CONTROL AND MAY NOT
  REPORT WEATHER SUCH AS PRECIPITATION AND FOG.

KYZ079-080-083-085-087-088-110-112-115-119-120-250600
...EASTERN KENTUCKY...

CITY           SKY/WX    TMP DP  RH WIND       PRES   REMARKS
JACKSON        CLEAR     48  41  76 CALM      30.08R
LONDON         CLEAR     43  40  89 CALM      30.09R
SOMERSET*      CLEAR     43  43 100 CALM      30.10S
MONTICELLO*    CLEAR     40  39  96 CALM      30.10F FOG
WILLIAMSBURG*    N/A    N/A N/A N/A CALM        N/A
MIDDLESBORO*   CLEAR     40  40  98 CALM      30.11S
HARLAN APT*    CLEAR     41  41 100 CALM      30.09F
HAZARD APT*    CLEAR     43  43 100 CALM      30.08S
BLACK MTN*       N/A     45  37  76 N5          N/A
PIKEVILLE APT* CLEAR     46  43  87 S6        30.07F
BIG SANDY*     CLEAR     46  42  85 SW3       30.07S
MOREHEAD APT*  PTCLDY    43  41  93 CALM      30.08S
$$

KYZ035-036-041-042-044-050-067-078-099-250600
...CENTRAL KENTUCKY...

CITY           SKY/WX    TMP DP  RH WIND       PRES   REMARKS
MT STERLING*   CLEAR     39  37  93 SW5       30.08S
FLEMING/MASON* CLEAR     48  39  71 SW5       30.07S
DANVILLE*      CLEAR     45  41  87 CALM      30.09R
RICHMOND*      CLEAR     43  41  93 SE3       30.07S
LEXINGTON      CLEAR     48  41  76 S3        30.07S
FRANKFORT      CLEAR     44  41  89 CALM      30.05F
$$

KYZ091>093-OHZ055-061-077-WVZ005-015-034-035-042-250600
...SOUTHERN OHIO/WEST VIRGINIA...

CITY           SKY/WX    TMP DP  RH WIND       PRES   REMARKS
COVINGTON      MOCLDY    51  42  71 CALM      30.05S
COLUMBUS       MOCLDY    45  40  82 CALM      30.02F
DAYTON         PTCLDY    52  43  71 SW8       30.03F
WILMINGTON     MOCLDY    47  38  71 SW3       30.04S
HUNTINGTON     CLEAR     43  42  97 S3        30.05S
CHARLESTON       N/A     41  40  96 CALM      30.06S
PINEVILLE*     CLEAR     38  38 100 MISG      30.13S
BECKLEY        CLEAR     39  35  86 S3        30.07F
BLUEFIELD      CLEAR     42  36  79 W7        30.08F
$$

VAZ002-007-008-TNZ017-027-036-066-071-250600
...SOUTHWEST VIRGINIA/EAST TENNESSEE...

CITY           SKY/WX    TMP DP  RH WIND       PRES   REMARKS
WISE*          CLEAR     45  36  70 CALM      30.09F
JONESVILLE*    CLEAR     39  37  93 CALM      30.11S
ABINGDON*      CLEAR     41  38  89 CALM      30.08F
BRISTOL        CLEAR     40  39  97 CALM      30.09S
KNOXVILLE      CLEAR     48  44  86 CALM      30.08S
OAK RIDGE      CLEAR     46  43  89 CALM      30.10S
CROSSVILLE     CLEAR     45  39  79 CALM      30.10S
NASHVILLE      CLEAR     49  47  93 S3        30.09F
$$

...KEY TO REMARKS...
VSB - VISIBILITY IN MILES
WCI - WIND CHILL INDEX
HX  - HEAT INDEX

$$



USA.gov is the U.S. government's official web portal to all federal, state and local government web resources and services.